Location: Austin
(30.3000°N, 97.7500°W)
Time: 07:03:38
(UTC-05:00)

Cosmos 2278 Rocket - Pass Details

Date: 16 June 2025
Orbit: 838 x 846 km, 71.0° (Epoch: 07 July)

Event Time Altitude Azimuth Distance (km) Brightness Sun altitude
Exits shadow 01:43:55 18° 63° (ENE) 1,975 4.3 -36.3°
Drops below altitude 10° 01:45:43 10° 49° (NE) 2,459 5.0 -36.2°
Sets 01:48:33 0° 36° (NE) 3,398 6.1 -36.2°
